Minot, ND

11:31 PM CDT on September 29, 2016 (GMT -0500)
Minot International

Weather History for KMOT - September, 2012

Change the Weather History Date:

Tuesday, September 18, 2012

  Actual Average Record
Temperature  
Mean Temperature 61 °F 57 °F  
Max Temperature 80 °F 69 °F 96 °F (1933)
Min Temperature 42 °F 45 °F 22 °F (1923)
Degree Days  
Heating Degree Days 4 9  
Month to date heating degree days 81 112  
Since 1 July heating degree days 94 183  
Cooling Degree Days 0 1  
Month to date cooling degree days 39 27  
Year to date cooling degree days 592 438  
Growing Degree Days 10 (Base 50)    
Moisture  
Dew Point 34 °F    
Average Humidity 43    
Maximum Humidity 62    
Minimum Humidity 23    
Precipitation  
Precipitation 0.00 in 0.05 in 1.53 in (1975)
Month to date precipitation 0.13 0.89  
Year to date precipitation 10.88 14.33  
Sea Level Pressure  
Sea Level Pressure 29.80 in    
Wind  
Wind Speed 11 mph (SW)    
Max Wind Speed 24 mph    
Max Gust Speed 31 mph    
Visibility 10 miles    
Events      
T = Trace of Precipitation, MM = Missing Value Source: NWS Daily Summary

Daily Weather History Graph

Daily Weather History Graph

Search for Another Location

Airport or City:

Trip Planner

Search our weather history database for the weather conditions in past years. The results will help you decide how hot, cold, wet, or windy it might be!

Date:

Astronomy

Sep. 18, 2012 Rise Set
Actual Time 7:26 AM CDT 7:50 PM CDT
Civil Twilight 6:55 AM CDT 8:21 PM CDT
Nautical Twilight 6:18 AM CDT 8:58 PM CDT
Astronomical Twilight 5:40 AM CDT 9:36 PM CDT
Moon 10:48 AM CDT (9/18) 8:53 PM CDT (9/18)
Length of Visible Light 13h 25m
Length of Day
12h 23m
Waxing Crescent, 9% of the Moon is Illuminated
Sep 18
Waxing Crescent
Sep 22
First Quarter
Sep 29
Full
Oct 8
Last Quarter
Oct 15
New

Hourly Weather History & Observations

Time (CDT) Temp. Windchill Dew Point Humidity Pressure Visibility Wind Dir Wind Speed Gust Speed Precip Events Conditions
12:54 AM 42.1 °F 38.4 °F 30.9 °F 65% 30.04 in 10.0 mi South 5.8 mph - N/A   Overcast
1:54 AM 46.9 °F - 32.0 °F 56% 30.03 in 10.0 mi South 4.6 mph - N/A   Overcast
2:54 AM 46.4 °F - 33.8 °F 62% 29.98 in 10.0 mi Calm Calm - N/A   Mostly Cloudy
3:54 AM 46.9 °F - 34.0 °F 61% 29.98 in 10.0 mi SE 4.6 mph - N/A   Overcast
4:54 AM 50.0 °F - 33.1 °F 52% 29.95 in 10.0 mi South 8.1 mph - N/A   Overcast
5:54 AM 50.0 °F - 32.0 °F 50% 29.92 in 10.0 mi SSE 10.4 mph - N/A   Overcast
6:54 AM 51.1 °F - 30.0 °F 44% 29.90 in 10.0 mi South 10.4 mph - N/A   Overcast
7:54 AM 50.0 °F - 30.0 °F 46% 29.88 in 10.0 mi South 6.9 mph - N/A   Overcast
8:54 AM 51.1 °F - 30.0 °F 44% 29.86 in 10.0 mi South 8.1 mph - N/A   Mostly Cloudy
9:54 AM 57.9 °F - 30.0 °F 35% 29.83 in 10.0 mi South 12.7 mph 18.4 mph N/A   Clear
10:54 AM 61.0 °F - 30.9 °F 32% 29.81 in 10.0 mi SSW 11.5 mph - N/A   Clear
11:54 AM 66.0 °F - 32.0 °F 28% 29.81 in 10.0 mi SSW 12.7 mph - N/A   Clear
12:54 PM 72.0 °F - 36.0 °F 27% 29.78 in 10.0 mi West 17.3 mph 25.3 mph N/A   Clear
1:54 PM 75.0 °F - 37.9 °F 26% 29.75 in 10.0 mi NW 20.7 mph 31.1 mph N/A   Clear
2:54 PM 75.9 °F - 37.9 °F 25% 29.73 in 10.0 mi WNW 17.3 mph 29.9 mph N/A   Clear
3:54 PM 78.1 °F - 37.9 °F 24% 29.72 in 10.0 mi West 16.1 mph 27.6 mph N/A   Clear
4:54 PM 79.0 °F - 37.9 °F 23% 29.68 in 10.0 mi WNW 13.8 mph - N/A   Clear
5:54 PM 78.1 °F - 37.9 °F 24% 29.68 in 10.0 mi NW 15.0 mph 21.9 mph N/A   Clear
6:54 PM 77.0 °F - 37.9 °F 24% 29.67 in 10.0 mi West 8.1 mph - N/A   Clear
7:54 PM 68.0 °F - 39.0 °F 35% 29.66 in 10.0 mi WSW 4.6 mph - N/A   Clear
8:54 PM 66.9 °F - 39.9 °F 37% 29.67 in 10.0 mi SW 9.2 mph - N/A   Clear
9:54 PM 68.0 °F - 37.0 °F 32% 29.65 in 10.0 mi SW 10.4 mph - N/A   Clear
10:54 PM 69.1 °F - 34.0 °F 27% 29.66 in 10.0 mi WNW 13.8 mph - N/A   Clear
11:54 PM 66.9 °F - 35.1 °F 31% 29.66 in 10.0 mi WNW 11.5 mph - N/A   Clear